Home   Weather   Koblenz   Past weeks

Flag for Germany Past Weather in Koblenz, Rhineland-Palatinate, Germany — Yesterday and Last 2 Weeks

Now
55 °F

Passing clouds.


Feels Like: 55 °F
Forecast: 50 / 73 °F
Wind: 2 mph from East

Location: Buechel

Current Time: Sep 27, 2016 at 10:54:58 AM

Latest Report: Sep 27, 2016 at 9:20 AM


Visibility: N/A

Pressure: 30.30 "Hg

Humidity: 77%

Dew Point: 48 °F

Location of KoblenzLocation

Past Weather in Koblenz — Graph

°F

Koblenz Temperature Yesterday

Maximum temperature yesterday: 63 °F (at 2:20 PM)
Minimum temperature yesterday: 48 °F (at 7:20 AM)
Average temperature yesterday: 57 °F

High & Low Weather Summary for the Past Weeks

 TemperatureHumidityPressure
High84 °F (Sep 12, 4:20 PM)100% (Sep 16, 5:45 AM)30.33 "Hg (Sep 16, 5:45 AM)
Low48 °F (Sep 22, 5:20 AM)35% (Sep 13, 4:20 PM)29.86 "Hg (Sep 15, 4:20 AM)
Average61 °F71%30.08 "Hg
* Reported Sep 12 9:20 AM — Sep 27 9:20 AM, Koblenz, Weather by CustomWeather, © 2016

Note: Actual official high and low records may vary slightly from our data, if they occured in-between our weather recording intervals... More about our weather records

Advertising

Koblenz Weather History for the Previous 24 Hours

Scroll right to see more
 ConditionsComfort  
Time TempWeatherWind HumidityBarometerVisibility
9:20 AM
Tue, Sep 27
55 °FPassing clouds.2 mph77%30.30 "HgN/A
8:20 AM50 °FPassing clouds.3 mph88%30.27 "HgN/A
7:20 AM50 °FFog.5 mph82%30.27 "HgN/A
6:20 AM50 °FPassing clouds.5 mph88%30.27 "HgN/A
5:20 AM52 °FPassing clouds.3 mph82%30.24 "HgN/A
5:01 AM52 °FPassing clouds.7 mph82%30.24 "HgN/A
4:20 AM52 °FCool.7 mph82%30.24 "Hg6 mi
3:20 AM52 °FCool.7 mph88%30.24 "Hg6 mi
2:20 AM52 °FCool.6 mph88%30.24 "Hg6 mi
1:20 AM52 °FCool.8 mph88%30.24 "HgN/A
12:20 AM52 °FCool.5 mph82%30.24 "Hg6 mi
11:20 PM
Mon, Sep 26
55 °FCool.5 mph63%30.24 "HgN/A
10:20 PM55 °FCool.8 mph63%30.24 "HgN/A
10:03 PM57 °FPassing clouds.9 mph59%30.24 "HgN/A
9:20 PM57 °FPassing clouds.9 mph59%30.24 "HgN/A
8:20 PM59 °FPartly cloudy.7 mph63%30.24 "HgN/A
7:20 PM59 °FPartly cloudy.8 mph63%30.21 "HgN/A
6:20 PM61 °FScattered clouds.6 mph59%30.21 "HgN/A
5:20 PM63 °FScattered clouds.6 mph56%30.21 "HgN/A
4:20 PM63 °FScattered clouds.6 mph56%30.21 "HgN/A
3:20 PM63 °FPassing clouds.6 mph52%30.21 "HgN/A
2:20 PM63 °FPassing clouds.5 mph56%30.21 "HgN/A
1:20 PM61 °FPassing clouds.5 mph59%30.21 "HgN/A
12:20 PM61 °FPassing clouds.5 mph55%30.24 "HgN/A
11:20 AM59 °FPassing clouds.5 mph59%30.24 "HgN/A
10:20 AM57 °FPassing clouds.6 mph63%30.24 "HgN/A
Weather by CustomWeather, © 2016

See weather overviewHow to use our weather pages